Tracking 35331 objects as of 16-Sep-2026
HD Live streaming from Space Station
objects crossing your sky now

CZ-7 R/B


CZ-7 R/B is no longer on orbit


NORAD ID: 52512
Int'l Code: 2022-050D
Launch date: May 9, 2022
Source: People's Republic of China (PRC)
Launch site: Wenchang Satellite Launch Center (WSC)
Decay date: 2022-05-25

Note: This is a ROCKET BODY
Your satellite tracking list
Your tracking list is empty




NASA's NSSDC Master Catalog

Two Line Element Set (TLE):
1 52512U 22050D   22145.26460629  .13236528  84317-5  16320-3 0  9996
2 52512  41.4866 350.6110 0018869 294.1822  66.8963 16.48028749  2483
Source of the keplerian elements: AFSPC